SCP
0 0 0 0 0 -0 -0 -0 0 -0 -0 -0 -0 -0 -0 -0 -0 -0 -0 -0 -0 -0 -0 -0 -0 -0 -0 -0 -0 -0 -0 -0 -0 -0 -0 -0 -0 -0 -0 -0 -0 -0 -0
0 -0 0 0 0 -0 0 -0 -0 -0 -0 -0 -0 -0 -0 -0 -0 -0 -0 -0 -0 -0 -0 -0 -0 -0 -0 -0 -0 -0 -0 -0 -0 -0 -0 -0 -0 -0 -0 -0 -0 -0 -0
-0 -0 -0 0 -0 -0 -0 -0 -0 -0 -0 -0 -0 -0 -0 -0 -0 -0 -0 -0 -0 -0 -0 -0 -0 -0 -0 -0 -0 -0 -0 -0 -0 -0 -0 0 -0 -0 -0 -0 -0 -0 -0
0 -0 -0 -0 -0 -0 -0 -0 -0 -0 -0 -0 -0 -0 -0 -0 -0 -0 -0 -0 -0 -0 -0 -0 -0 -0 -0 -0 -0 -0 -0 -0 -0 -0 0 0 0 -0 -0 -0 -0 -0 -0
0 0 -0 0 0 0 -0 -0 -0 -0 -0 -0 -0 -0 -0 -0 -0 -0 -0 -0 -0 -0 -0 -0 -0 -0 -0 -0 -0 -0 -0 -0 -0 0 0 0 0 -0 -0 -0 -0 -0 -0
0 0 0 -0 -0 -0 -0 -0 0 0 -0 -0 -0 -0 -0 -0 -0 -0 -0 -0 -0 -0 -0 -0 -0 -0 -0 -0 -0 -0 -0 -0 -0 0 0 0 0 -0 -0 -0 -0 -0 -0
0 0 0 0 0 -0 -0 -0 -0 -0 -0 -0 -0 -0 -0 -0 -0 -0 -0 -0 -0 -0 -0 -0 -0 -0 -0 -0 -0 -0 -0 -0 0 0 0 0 0 -0 -0 -0 -0 -0 -0
0 0 0 0 0 0 0 0 0 -0 -0 -0 -0 -0 -0 -0 -0 -0 -0 -0 -0 -0 -0 -0 -0 -0 -0 -0 -0 -0 -0 -0 0 0 0 0 -0 -0 -0 -0 -0 -0 -0
0 0 0 0 0 -0 -0 -0 -0 -0 -0 -0 -0 -0 -0 -0 -0 -0 -0 -0 -0 -0 -0 -0 -0 -0 -0 -0 -0 -0 -0 -0 0 0 0 0 -0 -0 -0 0 0 0 0
0 0 0 0 0 0 -0 -0 -0 -0 -0 -0 -0 -0 -0 -0 -0 -0 -0 -0 -0 -0 -0 -0 -0 -0 -0 -0 -0 -0 -0 0 0 0 0 0 0 0 0 0 0 0 0
0 -0 -0 -0 -0 0 -0 0 -0 -0 -0 -0 -0 -0 -0 0 0 0 0 -0 -0 -0 -0 -0 -0 -0 -0 0 0 0 0 0 0 0 0 0 0 0 0 0 0 0 0
-0 -0 -0 -0 -0 -0 -0 -0 -0 -0 -0 0 0 -0 0 0 0 0 0 0 0 0 -0 -0 0 0 0 0 0 0 0 0 0 0 0 0 0 0 0 0 0 0 0
-0 -0 -0 -0 -0 -0 -0 -0 0 0 0 0 0 0 0 0 0 0 0 0 0 0 0 0 0 0 0 0 0 0 0 0 0 0 0 0 0 0 0 0 0 0 0
-0 -0 -0 -0 -0 -0 -0 -0 -0 0 0 0 0 0 0 0 0 0 0 0 0 0 0 0 0 0 0 0 0 0 0 0 0 0 0 0 0 0 0 0 0 0 0
-0 -0 -0 -0 -0 -0 -0 -0 -0 -0 0 0 0 0 0 0 0 0 0 0 0 0 0 0 0 0 0 0 0 0 0 0 0 0 0 0 0 0 0 0 0 0 0
-0 -0 -0 -0 -0 -0 -0 -0 -0 -0 0 0 0 0 0 0 0 0 0 0 0 0 0 0 0 0 0 0 0 0 0 0 0 0 0 0 0 0 0 0 0 0 0
-0 -0 -0 -0 -0 -0 -0 -0 -0 0 0 0 0 0 0 0 0 0 0 0 0 0 0 0 0 0 0 0 0 0 0 0 0 0 0 0 0 0 0 0 0 0 0
0 0 -0 -0 -0 -0 -0 -0 0 0 0 0 0 0 0 0 0 0 0 0 0 0 0 0 0 0 0 0 0 0 0 0 0 0 0 0 0 0 0 0 0 0 0
0 0 0 0 0 0 0 0 0 0 0 0 0 0 0 0 0 0 0 0 0 0 0 0 0 0 0 0 0 0 0 0 0 0 0 0 0 0 0 0 0 0 0
0 0 0 0 0 0 0 0 0 0 0 0 0 0 0 0 0 0 0 0 0 0 0 0 0 0 0 0 0 0 0 0 0 0 0 0 0 0 0 0 0 0 0
0 0 0 0 0 0 0 0 0 0 0 0 0 0 0 0 0 0 0 0 0 0 0 0 0 0 0 0 0 0 0 0 0 0 0 0 0 0 0 0 0 0 0
0 0 0 0 0 0 0 0 0 0 0 0 0 0 0 0 0 0 0 0 0 0 0 0 0 0 0 0 0 0 0 0 0 0 0 0 0 0 0 0 0 0 0
0 0 0 0 0 0 0 0 0 0 0 0 0 0 0 0 0 0 0 0 0 0 0 0 0 0 0 0 0 0 0 0 0 0 0 0 0 0 0 0 0 0 0
0 0 0 0 0 0 0 0 0 0 0 0 0 0 0 0 0 0 0 0 0 0 0 0 0 0 0 0 0 0 0 0 0 0 0 0 0 0 0 0 0 0 0
0 0 0 0 0 0 0 0 0 0 0 0 0 0 0 0 0 0 0 0 0 0 0 0 0 0 0 0 0 0 0 0 0 0 0 0 0 0 0 0 0 0 0
0 0 0 0 0 0 0 0 0 0 0 0 0 0 0 0 0 0 0 0 0 0 0 0 0 0 0 0 0 0 0 0 0 0 0 0 0 0 0 0 0 0 0
Wind_Speed_500mb
41 39 34 27 19 17 18 21 16 15 19 21 22 23 25 19 18 19 20 18 17 24 28 31 30 20 20 18 16 18 22 26 31 38 39 41 43 45 46 45 44 44 44
49 47 38 23 15 16 19 19 20 23 21 22 24 28 26 19 16 14 16 18 19 25 27 28 28 24 26 23 21 20 20 23 24 30 36 39 36 35 34 34 31 31 33
46 44 38 28 21 21 21 21 23 25 23 23 26 32 23 16 10 13 16 18 20 24 29 28 26 25 27 26 25 24 24 22 20 20 21 31 33 30 28 29 26 23 22
41 46 39 30 22 21 22 24 25 26 25 24 25 29 22 14 10 15 18 19 21 26 28 29 28 27 27 28 29 27 27 27 26 25 28 33 36 36 38 38 43 42 46
43 40 34 26 23 23 23 23 25 25 25 23 24 28 21 13 13 15 17 19 22 25 24 25 26 25 24 25 27 28 28 29 31 33 39 42 39 38 37 41 40 38 39
43 38 33 28 24 22 22 22 21 22 22 22 21 22 21 14 12 14 16 17 21 22 27 25 26 24 25 29 30 28 31 32 34 33 39 36 34 31 35 36 34 31 32
45 37 34 29 24 20 18 18 19 19 19 20 19 18 13 11 10 10 13 14 17 23 23 26 25 24 21 25 26 27 34 32 30 32 35 31 29 26 27 26 30 30 32
43 37 33 30 26 22 19 18 17 18 17 17 16 15 12 10 9 9 11 12 16 20 19 22 24 24 19 21 27 33 31 27 23 21 24 24 18 23 24 25 28 31 32
41 37 35 32 30 24 21 18 16 15 15 14 13 12 10 8 7 7 9 11 15 16 18 18 16 14 14 18 18 19 16 16 13 10 14 23 21 19 21 27 27 31 30
39 37 40 38 36 33 28 21 17 16 15 13 12 9 8 6 5 6 8 10 12 14 15 14 13 13 14 14 12 14 13 8 14 22 20 18 15 17 24 26 31 31 29
37 38 39 39 39 37 32 30 26 22 19 17 15 11 7 5 5 6 8 10 12 13 14 13 11 10 9 9 9 12 13 17 21 18 11 7 15 20 27 24 27 25 29
43 43 39 38 40 40 37 33 29 27 25 22 19 15 11 10 8 9 11 13 13 14 14 13 13 11 9 7 6 14 17 21 23 16 10 5 15 20 25 22 22 24 24
49 44 45 41 39 44 43 40 38 35 32 28 25 21 18 15 13 13 14 15 14 13 12 12 12 11 9 9 11 18 19 26 22 17 11 8 13 21 23 23 21 21 23
57 52 45 43 44 45 48 48 45 41 37 34 30 28 25 21 18 16 17 16 15 12 13 13 12 10 10 10 12 17 19 26 24 20 18 14 19 20 19 22 23 18 19
58 57 55 47 48 46 51 52 49 45 41 37 37 34 31 28 22 20 22 21 20 18 17 15 12 10 10 10 12 16 21 29 29 29 26 28 16 16 20 18 20 21 18
63 61 59 58 53 48 49 53 51 46 42 42 43 41 38 35 31 29 27 27 27 26 24 21 16 12 11 12 13 15 21 28 32 33 32 30 24 22 17 20 20 21 22
63 64 65 64 61 59 52 50 47 51 51 52 48 45 44 44 40 36 36 34 32 32 32 31 26 23 21 20 21 21 24 29 33 36 37 37 34 29 25 24 25 21 22
63 69 67 69 71 69 62 57 57 58 58 58 56 55 53 52 47 45 44 41 41 41 41 40 35 27 32 32 30 28 29 32 37 41 43 46 42 36 31 31 26 25 24
61 64 70 73 75 76 70 66 65 61 62 63 63 60 62 59 56 52 46 47 50 52 51 49 47 46 41 40 39 38 37 40 43 45 50 53 51 47 45 41 36 33 28
59 63 66 72 73 77 76 72 73 71 70 65 68 69 66 64 63 62 56 57 53 66 59 59 57 56 52 48 48 46 47 47 50 51 54 57 58 57 56 53 50 46 42
59 65 65 69 73 78 84 81 83 82 80 77 74 71 69 68 68 68 65 64 65 71 62 65 67 64 61 59 56 56 59 58 60 59 59 62 65 67 66 63 60 57 51
51 54 64 69 67 72 80 81 85 82 85 82 78 77 73 76 73 73 72 69 74 70 81 80 73 74 70 71 69 64 54 66 71 69 70 72 74 74 76 74 71 67 64
47 51 56 60 69 72 73 81 87 93 94 93 92 89 82 73 78 80 79 79 74 76 77 88 80 80 83 82 82 73 30 46 56 69 81 82 82 83 82 82 80 77 75
20 34 40 50 64 74 77 83 83 84 90 85 90 90 88 81 77 85 85 86 85 83 84 83 90 92 96 83 92 91 96 77 43 40 62 73 85 91 89 89 90 88 84
9 11 23 35 46 59 75 82 83 84 85 88 87 88 86 83 81 85 84 91 93 89 84 88 83 93 103 99 100 103 103 103 97 83 70 66 71 80 95 94 97 93 90
22 23 26 26 25 30 45 64 75 80 81 83 82 83 82 79 74 74 81 89 92 90 93 90 91 92 97 99 112 105 118 107 112 107 106 104 97 90 90 91 98 103 93
Wind_Direction_500mb
158 146 142 138 127 124 123 127 132 118 119 124 119 110 109 110 99 82 62 67 81 87 105 100 99 112 120 118 116 112 112 114 107 99 101 100 98 99 97 98 98 100 96
151 152 151 145 145 123 105 117 125 123 116 120 116 112 108 108 102 77 65 73 87 97 101 103 108 99 103 103 106 109 108 110 111 105 105 104 100 100 99 97 98 100 97
160 161 153 154 158 126 120 121 116 110 115 117 120 121 118 121 103 73 71 85 95 102 103 99 97 94 95 93 94 97 99 100 105 112 115 105 99 98 101 95 95 92 98
160 160 157 160 139 129 129 119 115 115 117 118 128 134 127 130 106 80 82 97 105 110 106 100 97 95 83 81 85 92 98 102 105 108 106 93 85 85 90 88 91 91 91
163 168 164 159 151 145 130 127 120 118 117 120 127 135 138 133 108 93 93 108 115 115 108 107 102 95 84 82 90 98 102 103 106 106 102 105 103 105 105 109 110 109 105
166 168 171 170 163 148 137 126 119 114 113 114 116 130 145 126 106 92 99 116 124 122 111 116 112 97 90 92 99 101 100 103 105 102 104 100 100 105 107 108 113 111 115
172 173 175 176 172 155 146 136 132 127 122 121 120 123 129 113 108 97 106 123 136 127 131 121 116 108 94 103 108 106 110 113 112 113 105 102 104 102 107 109 112 105 103
182 179 180 183 180 176 167 157 148 142 137 132 124 121 117 119 120 119 123 136 145 148 140 145 140 130 122 119 117 126 126 120 125 117 111 102 103 105 115 115 112 111 111
193 194 191 190 189 190 186 176 167 161 153 148 140 127 112 114 122 131 142 153 158 159 153 159 154 147 132 131 131 143 143 138 138 130 110 112 125 128 123 110 113 108 106
194 200 197 196 197 198 196 191 188 186 180 175 164 154 133 119 130 157 167 168 174 172 172 176 174 158 151 150 157 173 181 194 137 123 130 138 150 129 117 116 106 101 103
200 203 203 205 204 204 203 203 198 196 194 193 193 186 174 167 169 178 178 180 185 182 185 182 182 172 171 174 175 195 188 156 147 148 145 170 134 121 114 110 107 107 105
205 204 210 211 213 210 211 213 211 210 209 208 207 206 201 198 194 191 189 185 189 185 191 188 190 190 192 201 196 177 181 166 163 171 171 219 135 121 113 116 113 111 111
207 214 217 219 220 222 220 219 219 218 217 214 215 216 215 212 209 205 200 196 195 200 203 196 194 196 205 217 206 200 208 174 179 179 199 228 161 141 126 121 120 117 114
213 218 221 225 227 232 229 228 227 225 223 222 224 225 225 222 219 217 205 206 207 210 206 200 199 205 216 224 222 223 213 185 197 203 217 220 172 152 138 135 130 129 126
220 221 224 228 228 231 229 231 232 232 233 234 233 234 233 228 230 222 213 212 213 210 211 209 212 222 223 235 236 236 213 200 206 217 239 248 187 175 157 147 146 137 137
226 227 225 228 233 235 236 234 235 236 239 241 243 242 241 234 232 229 226 221 219 216 213 212 220 232 245 249 245 241 232 232 234 241 248 252 237 188 196 175 166 161 151
230 230 229 231 234 237 242 239 234 231 233 235 244 246 245 240 236 235 234 232 230 226 221 219 225 228 242 254 252 256 241 238 242 244 249 249 250 213 200 189 180 185 169
235 235 233 234 235 238 243 241 236 236 237 237 242 247 244 240 240 240 240 240 239 234 233 231 233 245 244 243 245 250 252 246 244 244 248 250 249 238 227 202 206 200 190
241 240 239 236 238 239 243 243 247 242 239 243 243 247 251 246 243 243 246 246 243 240 237 235 239 242 248 248 242 242 245 242 242 246 247 248 248 244 246 252 251 244 220
244 243 242 242 241 239 242 247 245 245 244 243 243 245 251 254 248 247 247 248 247 243 244 240 242 244 250 247 242 243 247 245 250 246 246 247 246 247 249 251 253 252 247
247 244 242 240 241 241 240 240 241 243 244 245 246 250 248 252 256 250 250 251 247 248 261 244 247 242 244 242 241 241 242 246 246 245 246 245 246 246 248 250 251 251 249
252 250 246 244 242 242 243 245 246 247 247 250 254 254 250 251 251 253 253 255 251 251 248 248 247 244 243 244 236 239 242 247 251 250 246 247 246 245 246 247 248 248 247
252 253 252 253 250 247 246 246 246 245 248 247 249 251 252 253 253 254 255 254 253 257 258 256 260 245 254 247 245 238 223 242 252 254 252 249 247 247 247 247 246 246 244
269 257 257 255 255 253 249 246 248 251 251 258 257 256 257 254 252 257 256 259 256 257 257 261 259 257 254 255 243 242 243 250 247 253 253 252 252 248 250 250 246 247 245
358 284 267 260 258 255 252 251 251 252 257 258 260 260 260 258 257 255 257 259 256 257 262 260 260 260 256 253 255 254 245 246 248 251 259 256 254 258 251 252 250 247 245
329 313 299 292 283 270 259 255 255 255 257 262 265 266 267 267 264 260 258 258 260 264 262 264 264 265 263 262 259 263 249 253 254 250 255 255 263 262 259 254 253 251 242
Wind_Speed_850mb
41 39 34 27 19 17 18 21 16 15 19 21 22 23 25 19 18 19 20 18 17 24 28 31 30 20 20 18 16 18 22 26 31 38 39 41 43 45 46 45 44 44 44
49 47 38 23 15 16 19 19 20 23 21 22 24 28 26 19 16 14 16 18 19 25 27 28 28 24 26 23 21 20 20 23 24 30 36 39 36 35 34 34 31 31 33
46 44 38 28 21 21 21 21 23 25 23 23 26 32 23 16 10 13 16 18 20 24 29 28 26 25 27 26 25 24 24 22 20 20 21 31 33 30 28 29 26 23 22
41 46 39 30 22 21 22 24 25 26 25 24 25 29 22 14 10 15 18 19 21 26 28 29 28 27 27 28 29 27 27 27 26 25 28 33 36 36 38 38 43 42 46
43 40 34 26 23 23 23 23 25 25 25 23 24 28 21 13 13 15 17 19 22 25 24 25 26 25 24 25 27 28 28 29 31 33 39 42 39 38 37 41 40 38 39
43 38 33 28 24 22 22 22 21 22 22 22 21 22 21 14 12 14 16 17 21 22 27 25 26 24 25 29 30 28 31 32 34 33 39 36 34 31 35 36 34 31 32
45 37 34 29 24 20 18 18 19 19 19 20 19 18 13 11 10 10 13 14 17 23 23 26 25 24 21 25 26 27 34 32 30 32 35 31 29 26 27 26 30 30 32
43 37 33 30 26 22 19 18 17 18 17 17 16 15 12 10 9 9 11 12 16 20 19 22 24 24 19 21 27 33 31 27 23 21 24 24 18 23 24 25 28 31 32
41 37 35 32 30 24 21 18 16 15 15 14 13 12 10 8 7 7 9 11 15 16 18 18 16 14 14 18 18 19 16 16 13 10 14 23 21 19 21 27 27 31 30
39 37 40 38 36 33 28 21 17 16 15 13 12 9 8 6 5 6 8 10 12 14 15 14 13 13 14 14 12 14 13 8 14 22 20 18 15 17 24 26 31 31 29
37 38 39 39 39 37 32 30 26 22 19 17 15 11 7 5 5 6 8 10 12 13 14 13 11 10 9 9 9 12 13 17 21 18 11 7 15 20 27 24 27 25 29
43 43 39 38 40 40 37 33 29 27 25 22 19 15 11 10 8 9 11 13 13 14 14 13 13 11 9 7 6 14 17 21 23 16 10 5 15 20 25 22 22 24 24
49 44 45 41 39 44 43 40 38 35 32 28 25 21 18 15 13 13 14 15 14 13 12 12 12 11 9 9 11 18 19 26 22 17 11 8 13 21 23 23 21 21 23
57 52 45 43 44 45 48 48 45 41 37 34 30 28 25 21 18 16 17 16 15 12 13 13 12 10 10 10 12 17 19 26 24 20 18 14 19 20 19 22 23 18 19
58 57 55 47 48 46 51 52 49 45 41 37 37 34 31 28 22 20 22 21 20 18 17 15 12 10 10 10 12 16 21 29 29 29 26 28 16 16 20 18 20 21 18
63 61 59 58 53 48 49 53 51 46 42 42 43 41 38 35 31 29 27 27 27 26 24 21 16 12 11 12 13 15 21 28 32 33 32 30 24 22 17 20 20 21 22
63 64 65 64 61 59 52 50 47 51 51 52 48 45 44 44 40 36 36 34 32 32 32 31 26 23 21 20 21 21 24 29 33 36 37 37 34 29 25 24 25 21 22
63 69 67 69 71 69 62 57 57 58 58 58 56 55 53 52 47 45 44 41 41 41 41 40 35 27 32 32 30 28 29 32 37 41 43 46 42 36 31 31 26 25 24
61 64 70 73 75 76 70 66 65 61 62 63 63 60 62 59 56 52 46 47 50 52 51 49 47 46 41 40 39 38 37 40 43 45 50 53 51 47 45 41 36 33 28
59 63 66 72 73 77 76 72 73 71 70 65 68 69 66 64 63 62 56 57 53 66 59 59 57 56 52 48 48 46 47 47 50 51 54 57 58 57 56 53 50 46 42
59 65 65 69 73 78 84 81 83 82 80 77 74 71 69 68 68 68 65 64 65 71 62 65 67 64 61 59 56 56 59 58 60 59 59 62 65 67 66 63 60 57 51
51 54 64 69 67 72 80 81 85 82 85 82 78 77 73 76 73 73 72 69 74 70 81 80 73 74 70 71 69 64 54 66 71 69 70 72 74 74 76 74 71 67 64
47 51 56 60 69 72 73 81 87 93 94 93 92 89 82 73 78 80 79 79 74 76 77 88 80 80 83 82 82 73 30 46 56 69 81 82 82 83 82 82 80 77 75
20 34 40 50 64 74 77 83 83 84 90 85 90 90 88 81 77 85 85 86 85 83 84 83 90 92 96 83 92 91 96 77 43 40 62 73 85 91 89 89 90 88 84
9 11 23 35 46 59 75 82 83 84 85 88 87 88 86 83 81 85 84 91 93 89 84 88 83 93 103 99 100 103 103 103 97 83 70 66 71 80 95 94 97 93 90
22 23 26 26 25 30 45 64 75 80 81 83 82 83 82 79 74 74 81 89 92 90 93 90 91 92 97 99 112 105 118 107 112 107 106 104 97 90 90 91 98 103 93
Wind_Direction_850mb
158 146 142 138 127 124 123 127 132 118 119 124 119 110 109 110 99 82 62 67 81 87 105 100 99 112 120 118 116 112 112 114 107 99 101 100 98 99 97 98 98 100 96
151 152 151 145 145 123 105 117 125 123 116 120 116 112 108 108 102 77 65 73 87 97 101 103 108 99 103 103 106 109 108 110 111 105 105 104 100 100 99 97 98 100 97
160 161 153 154 158 126 120 121 116 110 115 117 120 121 118 121 103 73 71 85 95 102 103 99 97 94 95 93 94 97 99 100 105 112 115 105 99 98 101 95 95 92 98
160 160 157 160 139 129 129 119 115 115 117 118 128 134 127 130 106 80 82 97 105 110 106 100 97 95 83 81 85 92 98 102 105 108 106 93 85 85 90 88 91 91 91
163 168 164 159 151 145 130 127 120 118 117 120 127 135 138 133 108 93 93 108 115 115 108 107 102 95 84 82 90 98 102 103 106 106 102 105 103 105 105 109 110 109 105
166 168 171 170 163 148 137 126 119 114 113 114 116 130 145 126 106 92 99 116 124 122 111 116 112 97 90 92 99 101 100 103 105 102 104 100 100 105 107 108 113 111 115
172 173 175 176 172 155 146 136 132 127 122 121 120 123 129 113 108 97 106 123 136 127 131 121 116 108 94 103 108 106 110 113 112 113 105 102 104 102 107 109 112 105 103
182 179 180 183 180 176 167 157 148 142 137 132 124 121 117 119 120 119 123 136 145 148 140 145 140 130 122 119 117 126 126 120 125 117 111 102 103 105 115 115 112 111 111
193 194 191 190 189 190 186 176 167 161 153 148 140 127 112 114 122 131 142 153 158 159 153 159 154 147 132 131 131 143 143 138 138 130 110 112 125 128 123 110 113 108 106
194 200 197 196 197 198 196 191 188 186 180 175 164 154 133 119 130 157 167 168 174 172 172 176 174 158 151 150 157 173 181 194 137 123 130 138 150 129 117 116 106 101 103
200 203 203 205 204 204 203 203 198 196 194 193 193 186 174 167 169 178 178 180 185 182 185 182 182 172 171 174 175 195 188 156 147 148 145 170 134 121 114 110 107 107 105
205 204 210 211 213 210 211 213 211 210 209 208 207 206 201 198 194 191 189 185 189 185 191 188 190 190 192 201 196 177 181 166 163 171 171 219 135 121 113 116 113 111 111
207 214 217 219 220 222 220 219 219 218 217 214 215 216 215 212 209 205 200 196 195 200 203 196 194 196 205 217 206 200 208 174 179 179 199 228 161 141 126 121 120 117 114
213 218 221 225 227 232 229 228 227 225 223 222 224 225 225 222 219 217 205 206 207 210 206 200 199 205 216 224 222 223 213 185 197 203 217 220 172 152 138 135 130 129 126
220 221 224 228 228 231 229 231 232 232 233 234 233 234 233 228 230 222 213 212 213 210 211 209 212 222 223 235 236 236 213 200 206 217 239 248 187 175 157 147 146 137 137
226 227 225 228 233 235 236 234 235 236 239 241 243 242 241 234 232 229 226 221 219 216 213 212 220 232 245 249 245 241 232 232 234 241 248 252 237 188 196 175 166 161 151
230 230 229 231 234 237 242 239 234 231 233 235 244 246 245 240 236 235 234 232 230 226 221 219 225 228 242 254 252 256 241 238 242 244 249 249 250 213 200 189 180 185 169
235 235 233 234 235 238 243 241 236 236 237 237 242 247 244 240 240 240 240 240 239 234 233 231 233 245 244 243 245 250 252 246 244 244 248 250 249 238 227 202 206 200 190
241 240 239 236 238 239 243 243 247 242 239 243 243 247 251 246 243 243 246 246 243 240 237 235 239 242 248 248 242 242 245 242 242 246 247 248 248 244 246 252 251 244 220
244 243 242 242 241 239 242 247 245 245 244 243 243 245 251 254 248 247 247 248 247 243 244 240 242 244 250 247 242 243 247 245 250 246 246 247 246 247 249 251 253 252 247
247 244 242 240 241 241 240 240 241 243 244 245 246 250 248 252 256 250 250 251 247 248 261 244 247 242 244 242 241 241 242 246 246 245 246 245 246 246 248 250 251 251 249
252 250 246 244 242 242 243 245 246 247 247 250 254 254 250 251 251 253 253 255 251 251 248 248 247 244 243 244 236 239 242 247 251 250 246 247 246 245 246 247 248 248 247
252 253 252 253 250 247 246 246 246 245 248 247 249 251 252 253 253 254 255 254 253 257 258 256 260 245 254 247 245 238 223 242 252 254 252 249 247 247 247 247 246 246 244
269 257 257 255 255 253 249 246 248 251 251 258 257 256 257 254 252 257 256 259 256 257 257 261 259 257 254 255 243 242 243 250 247 253 253 252 252 248 250 250 246 247 245
358 284 267 260 258 255 252 251 251 252 257 258 260 260 260 258 257 255 257 259 256 257 262 260 260 260 256 253 255 254 245 246 248 251 259 256 254 258 251 252 250 247 245
329 313 299 292 283 270 259 255 255 255 257 262 265 266 267 267 264 260 258 258 260 264 262 264 264 265 263 262 259 263 249 253 254 250 255 255 263 262 259 254 253 251 242